Zurück zum Katalog

SICRAL 1B

AktivMilitärGEO
NORAD 34810·PAYLOAD·🇮🇹 Italy

Gestartet Apr 20, 2009 von Sea Launch Platform

Loading…

TLE

AktuellSource: Mike McCants

Epoche: Sep 15, 2026, 04:50 UTC

1 34810U 09020A   26258.20159602  .00000000  00000-0  00000-0 0    08
2 34810   3.0809  78.5037 0003919 254.7247 105.2397  1.00270000  1403

Verfolge SICRAL 1B in Echtzeit mit AllMySat

Download on the App Store